Content
SEND FEEDBACK

Daily
Averages
Monthly
Summary
Brazil

TERESINA, PIAUI


Home > South America > Brazil > Piaui
Elevation: 328 feet     Latitude: 05 03S     Longitude: 042 48W

WEATHER
 
SELECT A DAY
Number of Records: 163,626;   Date Range: 6/30/96 - 7/20/14
 
SHARE

PRINT THIS DATA

[ ← Previous Day ]
WEATHER ALMANAC - FEBRUARY 14, 2013
[ Next Day → ]
[ °C ]   °F
Weather ElementAverageHighLow
Temperature79.7 °F90 °F (3:00 pm)75 °F (3:00 am)
Dewpoint76.6 °F79 °F (9:00 pm)73.4 °F (12:23 am)
Humidity90.8 %100 % (1:00 am)59 % (3:00 pm)
Barometer27.73 in29.95 in (10:00 am) (7:00 pm)
Wind Speed1.4 mph5.8 mph (1:00 am)
Weather ElementAverage
Visibility7 mi
Wind DirectionSE (133.8 °)

Weather ElementTotal
Precipitation---
Cooling Degree Days17.5 (Base 65)
Growing Degree Days32.5 (Base 50)
Averaged from 28 records on February 14, 2013
WEATHER CONDITIONS BREAKOUT
WIND DIRECTION BREAKOUT
WEATHER BY HOUR - FEBRUARY 14, 2013
[ °C ]   °F
Local TimeTemperatureDewpointHumidityBarometerVisibilityWind DirectionWind SpeedGust SpeedPrecipitationEventsConditions
12:23 AM75.2 °F73.4 °F94 %6.2 miSouth (190°)2.3 mphRain-ThunderstormLight Thunderstorms and Rain
1:00 AM75.2 °F75.2 °F100 %6.2 miNorth (350°)5.8 mphRain-ThunderstormLight Thunderstorms and Rain
2:00 AM75.2 °F75.2 °F100 %29.83 in6.2 miNNE (30°)1.2 mphRainLight Rain
2:35 AM75.2 °F75.2 °F100 %29.86 in6.2 miSSE (150°)1.2 mphRainLight Rain
3:00 AM75.0 °F75.0 °F99 %29.86 in9.0 miSouth (190°)3.5 mphRainLight Rain
3:00 AM75.2 °F75.2 °F100 %29.86 in6.2 miSouth (190°)3.5 mphRainLight Rain
4:00 AM75.2 °F75.2 °F100 %29.83 in6.2 miNNE (20°)1.2 mphOvercast
5:00 AM75.2 °F75.2 °F100 %29.83 in6.2 miNNE (30°)2.3 mphMostly Cloudy
6:00 AM75.2 °F75.2 °F100 %29.86 in6.2 miNNE (30°)1.2 mphOvercast
7:00 AM75.2 °F75.2 °F100 %29.86 in6.2 miCalmOvercast
8:00 AM77.0 °F75.2 °F94 %29.92 in6.2 miSSW (200°)1.2 mphOvercast
9:00 AM77.0 °F76.0 °F95 %29.93 in12.0 miCalmPartly Cloudy
9:00 AM77.0 °F75.2 °F94 %29.92 in6.2 miCalmOvercast
10:00 AM78.8 °F77.0 °F94 %29.95 in6.2 miCalmMostly Cloudy
11:00 AM80.6 °F77.0 °F89 %29.95 in6.2 miWSW (250°)1.2 mphRainLight Rain
12:00 PM80.6 °F77.0 °F89 %29.92 in6.2 miSSW (200°)2.3 mphRainLight Rain
1:00 PM87.8 °F77.0 °F70 %29.86 in6.2 miSE (130°)1.2 mphScattered Clouds
3:00 PM90.0 °F78.0 °F59 %29.83 in12.0 miWSW (250°)1.2 mphPartly Cloudy
3:00 PM89.6 °F77.0 °F66 %29.83 in6.2 miWSW (250°)1.2 mphScattered Clouds
4:00 PM87.8 °F77.0 °F70 %29.83 in6.2 miNW (310°)3.5 mphScattered Clouds
5:00 PM86.0 °F78.8 °F79 %29.83 in6.2 miNNW (340°)1.2 mphScattered Clouds
6:00 PM84.2 °F77.0 °F79 %29.80 in6.2 miNorth (350°)2.3 mphPartly Cloudy
7:00 PM84.2 °F78.8 °F84 %29.83 in6.2 miCalmScattered Clouds
8:00 PM82.4 °F78.8 °F89 %29.86 in6.2 miNNE (20°)2.3 mphPartly Cloudy
9:00 PM79.0 °F79.0 °F98 %29.84 in12.0 miCalmRainLight Rain
9:00 PM78.8 °F78.8 °F100 %29.83 in6.2 miCalmPartly Cloudy
10:00 PM78.8 °F78.8 °F100 %29.86 inCalmClear
11:00 PM78.8 °F78.8 °F100 %29.86 inCalmClear
Hourly data recorded from SBTE, located miles away from Teresina, Piaui







STORIES FROM OUR PARTNERS